Regional Weather Roundup
Issued by NWS

Home | Current Version | Previous Version | Graphics & Text | Print | Product List | Glossary On
Versions: 1 2 3 4 5 6 7 8 9 10 11 12 13 14 15 16 17 18 19 20 21 22 23 24 25 26 27 28 29 30 31 32 33 34 35 36 37 38 39 40 41 42 43 44 45 46 47 48 49 50
000
ASUS44 KMEG 052110
RWRTN
TENNESSEE HOURLY STATE WEATHER ROUNDUP
NATIONAL WEATHER SERVICE MEMPHIS TN
400 PM CDT THU MAY 05 2016

TNZ002-004-019-021-049-052-054-088>092-052200-
WEST TENNESSEE

CITY           SKY/WX    TMP DP  RH WIND       PRES   REMARKS
MEMPHIS INTL   MOSUNNY   71  37  28 N14G29    29.94F
NWS MEMPHIS      N/A     69 N/A N/A MISG        N/A
JACKSON        PTSUNNY   67  42  40 N15       29.93F
DYERSBURG      MOSUNNY   66  43  42 N17G25    29.95F
UNION CITY     PTSUNNY   63  43  48 N14       29.96S
LEXINGTON      MOSUNNY   63  41  45 N17       29.90F
$$

TNZ008-025-027-028-033-062-065-066-052200-
NORTH MIDDLE TENNESSEE

CITY           SKY/WX    TMP DP  RH WIND       PRES   REMARKS
NASHVILLE      PTSUNNY   60  38  43 NW16G25   29.92S
CLARKSVILLE    PTSUNNY   58  41  53 N16       29.95S
SMYRNA         MOSUNNY   59  40  49 N15       29.92S
COOKEVILLE     CLOUDY    54  43  66 N9        29.87S
CROSSVILLE     CLOUDY    48  39  71 N13G22    29.86S
$$

TNZ061-075-076-078-094-096-097-052200-
SOUTH MIDDLE TENNESSEE

CITY           SKY/WX    TMP DP  RH WIND       PRES   REMARKS
TULLAHOMA      PTSUNNY   57  39  51 N14       29.89R
WINCHESTER     PTSUNNY   55  37  50 N9        29.88S
MCMINNVILLE    CLOUDY    54  39  58 NW13      29.88S
COLUMBIA       MOSUNNY   63  43  48 VRB7      29.89S
SHELBYVILLE    PTSUNNY   59  41  51 N14       29.91R
$$

TNZ017-018-042-046-047-052200-
NORTHEAST TENNESSEE

CITY           SKY/WX    TMP DP  RH WIND       PRES   REMARKS
TRI CITIES     CLOUDY    55  37  50 VRB6      29.74R
$$

TNZ012-013-036-069-073-074-052200-
CENTRAL EAST TENNESSEE

CITY           SKY/WX    TMP DP  RH WIND       PRES   REMARKS
KNOXVILLE      PTSUNNY   53  43  68 NW10G20   29.80R
OAK RIDGE      CLOUDY    53  39  59 NW9G20    29.84R
GATLINBURG     MOCLDY    48  43  81 N5        29.78R
MORRISTOWN     CLOUDY    52  43  71 N7G14     29.77R
$$

TNZ083-085-099-052200-
SOUTHEAST TENNESSEE

CITY           SKY/WX    TMP DP  RH WIND       PRES   REMARKS
CHATTANOOGA    PTSUNNY   57  38  48 NW18G28   29.85R
$$

SKY/WX REPORTED AS FAIR MEANS FEW OR NO CLOUDS BELOW
12 THOUSAND FEET.




USA.gov is the U.S. government's official web portal to all federal, state and local government web resources and services.